Regional Weather Roundup
Issued by NWS

Home | Current Version | Previous Version | Text Only | Print | Product List | Glossary On
Versions: 1 2 3 4 5 6 7 8 9 10 11 12 13 14 15 16 17 18 19 20 21 22 23 24 25 26 27 28 29 30 31 32 33 34 35 36 37 38 39 40 41 42 43 44 45 46 47 48 49 50
000
ASUS42 KFFC 230410
RWRGA
WEATHER ROUNDUP FOR GEORGIA
NATIONAL WEATHER SERVICE PEACHTREE CITY GA
1200 AM EDT SAT SEP 23 2017

NOTE: "FAIR" INDICATES FEW OR NO CLOUDS BELOW 12,000 FEET WITH NO
SIGNIFICANT WEATHER AND/OR OBSTRUCTIONS TO VISIBILITY.

* = USE WITH CAUTION. THE STATIONS MARKED WITH AN ASTERISK MAY NOT
REPORT WEATHER SUCH AS PRECIPITATION, FOG, OR THUNDER AND ARE NOT
QUALITY CONTROLLED BY NWS.

THE REMARK "TC" DENOTES TEMPERATURE READING IN DEGREES CELSIUS.

GAZ001>058-230500-
NORTH GEORGIA

CITY           SKY/WX    TMP DP  RH WIND       PRES   REMARKS
ATLANTA        PTCLDY    75  68  78 CALM      30.05R
ATHENS         CLEAR     70  69  97 CALM      30.04S
CHAMBLEE       CLEAR     69  65  86 CALM      30.05S
PEACHTREE CITY CLEAR     69  68  96 CALM      30.05R
ROME           CLEAR     73  72  96 CALM      30.03R
WEST ATLANTA   CLEAR     73  71  93 CALM      30.04S
GAINESVILLE    CLEAR     72  66  81 CALM      30.09R
CARTERSVILLE   CLEAR     69  69 100 CALM      30.04S


CITY           SKY/WX    TMP DP  RH WIND       PRES   REMARKS
DALTON*        PTCLDY    70  70 100 CALM      30.05S
MARIETTA       PTCLDY    71  66  84 CALM      30.05R
KENNESAW*      PTCLDY    87  69  54 CALM      30.06R HX  91
CANTON*        CLEAR     72  72 100 CALM      30.08R
$$

GAZ059>098-102>109-230500-
CENTRAL GEORGIA

CITY           SKY/WX    TMP DP  RH WIND       PRES   REMARKS
AUGUSTA-BUSH   CLEAR     69  68  96 CALM      30.01S
AUGUSTA-DANIEL CLEAR     75  71  87 CALM      30.02S
COLUMBUS       CLEAR     77  67  71 E3        30.00S
MACON          CLEAR     68  68 100 W3        30.01S
ROBINS AFB     CLEAR     71  69  95 CALM      30.01R


CITY           SKY/WX    TMP DP  RH WIND       PRES   REMARKS
LAGRANGE*      CLEAR     70  69  98 CALM      30.03S
SYLVANIA*      CLEAR     71  71 100 CALM      30.02S
MILLEDGEVILLE* CLEAR     72  72 100 CALM      30.02S FOG
$$

GAZ099>101-110>166-230500-
SOUTH GEORGIA

CITY           SKY/WX    TMP DP  RH WIND       PRES   REMARKS
SAVANNAH       CLEAR     73  71  93 CALM      30.00S
VALDOSTA       CLEAR     74  69  85 E3        29.97F
ALMA           CLEAR     69  67  93 CALM      29.99S
ST SIMONS      CLEAR     80  71  74 E9        29.97S
FT STEWART     CLEAR     71  69  93 NW3       29.97S
ALBANY         MOCLDY    78  68  71 N5        30.01R
HUNTER AFB     CLEAR     74  71  88 CALM      29.97S
MOODY AFB      CLEAR     72  69  88 NE5       29.98S
BRUNSWICK        N/A     72  70  94 CALM      29.98F FOG


CITY           SKY/WX    TMP DP  RH WIND       PRES   REMARKS
BAINBRIDGE*    PTCLDY    73  72  94 CALM      29.98S
MOULTRIE*      CLEAR     75  70  83 CALM      30.00S
VIDALIA*       CLEAR     72  70  94 CALM      30.01S
WAYCROSS*      CLEAR     71  69  90 CALM      29.99S
DOUGLAS*       CLEAR     72  68  88 E3        30.00F
$$



USA.gov is the U.S. government's official web portal to all federal, state and local government web resources and services.